星链-32401 (STARLINK-32401)

导读 | 豆包AI

STARLINK-32401是美国SpaceX公司星链(Starlink)卫星互联网项目中的一颗低轨通信卫星,于2024年11月7日发射入轨。作为星链大规模星座组网计划的组成部分,它运行于近地轨道,旨在为全球提供高速低延迟的宽带互联网服务,尤其弥补偏远地区、海洋空域等传统网络覆盖盲区,助力缩小全球数字鸿沟,同时星链系统也可支持应急通信与商业应用场景。

Basic Information
目录编号:
61865
目录名称:
STARLINK-32401
国际标识:
2024-202W
轨道中心:
EARTH
卫星名称:
星链-32401
卫星全名:
星链-32401 (STARLINK-32401)
卫星状态:
在轨 (已飞行493 天)
发射日期:
2024-11-07 UTC
国别 :
美国 (US)
星等 :
--
Orbit Information
数据来源 国际轨道数据 AOE轨道数据
星历时间 2026-03-15T01:23:59+0800
19小时前
查看轨道信息
2026-03-11T09:00:00+0800
4天前
查看轨道信息
半长轴 6861.141km 6861.137km
偏心率 0.000176 0.0000127
轨道倾角 43.003° 43.003°
近地点辐角 272.923° 355.258°
升交点赤经 209.897° 230.703°
平近点角 87.142° 245.406°
近地点 481.796km 482.912km
远地点 484.212km 483.088km
周期 94.266分钟 94.266分钟
每日圈数 15.275952 15.275965
Detailed Information
固有亮度:
5
最大亮度:
2.5
卫星平台:
Starlink V1.0
覆盖范围:
全球
运营商:
太空探索技术公司
运营商所在国:
美国
制造商(研发单位):
太空探索技术公司
制造商所在国:
美国
使用方式:
暂无
Satellite Introduction
Starlink 计划是 SpaceX 推出的全球卫星互联网项目,通过发射低轨道卫星,为全球尤其是偏远地区提供高速、低延迟的互联网服务。自 2019 年起,Starlink 已部署数千颗卫星,旨在缩小全球数字鸿沟,推动互联网普及。该项目还为军事、航空等行业提供通信支持,带来广泛经济效益。
2D Orbit Map
3D Orbit Map
Orbit Altitude Analysis Chart
Orbit Inclination Analysis Chart
Orbit Comprehensive Analysis Chart
View Comprehensive Chart